SR7U-1 Weather Reports


time (UTC)temp
C
wind
direction
speed
KPH
gust
KPH
rain 1hr
cm
rain 24hr
cm
rain mn
cm
humidity
%
barometer
mb
20260506201601 15 0.0 0.0 0.00 0.00 0.00 75 1006.8
20260506200232 15 0.0 0.0 0.00 0.00 0.00 74 1006.7
20260506195011 15 0.0 0.0 0.00 0.00 0.00 73 1006.7
20260506193743 16 0.0 0.0 0.00 0.00 0.00 72 1006.7
20260506192455 16 0.0 0.0 0.00 0.00 0.00 72 1006.7
20260506191055 16 0.0 0.0 0.00 0.00 0.00 73 1006.9
20260506185620 16 0.0 0.0 0.00 0.00 0.00 74 1006.8
20260506184145 16 0.0 0.0 0.00 0.00 0.00 70 1006.9
20260506182704 17 0.0 0.0 0.00 0.00 0.00 69 1007.0
20260506181240 18 0.0 0.0 0.00 0.00 0.00 64 1006.6
20260506175822 20 0.0 0.0 0.00 0.00 0.00 56 1006.0
20260506174445 20 0.0 0.0 0.00 0.00 0.00 53 1005.7
20260506173239 20 0.0 0.0 0.00 0.00 0.00 56 1005.5
20260506172011 21 0.0 0.0 0.00 0.00 0.00 53 1005.6
20260506170519 21 0.0 0.0 0.00 0.00 0.00 48 1005.5
20260506165300 22 0.0 0.0 0.00 0.00 0.00 44 1005.5
20260506163840 23 0.0 0.0 0.00 0.00 0.00 42 1005.5
20260506162600 23 0.0 0.0 0.00 0.00 0.00 40 1005.5
20260506161312 24 0.0 0.0 0.00 0.00 0.00 37 1005.6
20260506155950 24 0.0 0.0 0.00 0.00 0.00 37 1005.7
20260506154645 24 0.0 0.0 0.00 0.00 0.00 37 1005.8
20260506153420 23 0.0 0.0 0.00 0.00 0.00 38 1005.7
20260506152122 24 0.0 0.0 0.00 0.00 0.00 36 1005.8
20260506150635 25 0.0 0.0 0.00 0.00 0.00 36 1005.8
20260506145202 25 0.0 0.0 0.00 0.00 0.00 36 1005.9
20260506143952 24 0.0 0.0 0.00 0.00 0.00 36 1006.0
20260506142721 24 0.0 0.0 0.00 0.00 0.00 37 1006.0
20260506141415 25 0.0 0.0 0.00 0.00 0.00 37 1006.2
20260506140110 23 0.0 0.0 0.00 0.00 0.00 39 1006.3
20260506134750 23 0.0 0.0 0.00 0.00 0.00 40 1006.2
20260506133521 24 0.0 0.0 0.00 0.00 0.00 38 1006.3
20260506132300 23 0.0 0.0 0.00 0.00 0.00 40 1006.3
20260506131010 23 0.0 0.0 0.00 0.00 0.00 39 1006.4
20260506125635 23 0.0 0.0 0.00 0.00 0.00 39 1006.4
20260506124414 23 0.0 0.0 0.00 0.00 0.00 40 1006.4
20260506123040 23 0.0 0.0 0.00 0.00 0.00 40 1006.5
20260506121550 22 0.0 0.0 0.00 0.00 0.00 42 1006.4
20260506120325 23 0.0 0.0 0.00 0.00 0.00 43 1006.4
20260506115010 23 0.0 0.0 0.00 0.00 0.00 43 1006.4
20260506113610 22 0.0 0.0 0.00 0.00 0.00 43 1006.4
20260506112225 22 0.0 0.0 0.00 0.00 0.00 46 1006.6
20260506111010 22 0.0 0.0 0.00 0.00 0.00 46 1006.6
20260506105525 22 0.0 0.0 0.00 0.00 0.00 45 1006.6
20260506104319 22 0.0 0.0 0.00 0.00 0.00 47 1006.6
20260506102820 21 0.0 0.0 0.00 0.00 0.00 49 1006.6
20260506101335 21 0.0 0.0 0.00 0.00 0.00 47 1006.6
20260506100122 21 0.0 0.0 0.00 0.00 0.00 48 1006.5
20260506094625 21 0.0 0.0 0.00 0.00 0.00 49 1006.4
20260506093150 21 0.0 0.0 0.00 0.00 0.00 50 1006.5
20260506091910 20 0.0 0.0 0.00 0.00 0.00 52 1006.5
20260506090615 20 0.0 0.0 0.00 0.00 0.00 50 1006.4
20260506085230 20 0.0 0.0 0.00 0.00 0.00 53 1006.3
20260506083922 19 0.0 0.0 0.00 0.00 0.00 52 1006.3
20260506082515 20 0.0 0.0 0.00 0.00 0.00 50 1006.2
20260506081057 20 0.0 0.0 0.00 0.00 0.00 48 1006.1
20260506073143 19 0.0 0.0 0.00 0.00 0.00 49 1005.8
20260506071905 20 0.0 0.0 0.00 0.00 0.00 47 1005.9
20260506070610 18 0.0 0.0 0.00 0.00 0.00 50 1005.9
20260506061453 17 0.0 0.0 0.00 0.00 0.00 50 1005.9
20260506050555 16 0.0 0.0 0.00 0.00 0.00 51 1005.8
20260506045130 15 0.0 0.0 0.00 0.00 0.00 55 1005.8
20260506043705 13 0.0 0.0 0.00 0.00 0.00 57 1005.7
20260506042316 13 0.0 0.0 0.00 0.00 0.00 59 1005.6
20260506041050 13 0.0 0.0 0.00 0.00 0.00 59 1005.7
20260506035710 12 0.0 0.0 0.00 0.00 0.00 60 1005.7
20260506034242 12 0.0 0.0 0.00 0.00 0.00 61 1005.8
20260506032924 11 0.0 0.0 0.00 0.00 0.00 65 1005.6
20260506031427 11 0.0 0.0 0.00 0.00 0.00 63 1005.7
20260506025942 12 0.0 0.0 0.00 0.00 0.00 62 1005.7
20260506024705 11 0.0 0.0 0.00 0.00 0.00 61 1005.8
20260506023220 12 0.0 0.0 0.00 0.00 0.00 61 1005.7
20260506021945 12 0.0 0.0 0.00 0.00 0.00 60 1005.9
20260506020448 12 0.0 0.0 0.00 0.00 0.00 60 1005.9
20260506015142 10 0.0 0.0 0.00 0.00 0.00 68 1006.1
20260506013740 12 0.0 0.0 0.00 0.00 0.00 61 1006.1
20260506012530 11 0.0 0.0 0.00 0.00 0.00 60 1006.1
20260506011210 11 0.0 0.0 0.00 0.00 0.00 63 1006.0
20260506005735 11 0.0 0.0 0.00 0.00 0.00 62 1006.3
20260506004500 13 0.0 0.0 0.00 0.00 0.00 54 1006.4
20260506003013 12 0.0 0.0 0.00 0.00 0.00 54 1006.4
20260506001718 12 0.0 0.0 0.00 0.00 0.00 57 1006.2
20260506000457 12 0.0 0.0 0.00 0.00 0.00 54 1006.4
20260505235045 12 0.0 0.0 0.00 0.00 0.00 55 1006.5
20260505233740 13 0.0 0.0 0.00 0.00 0.00 53 1006.6
20260505232358 14 0.0 0.0 0.00 0.00 0.00 48 1006.7
20260505230900 16 0.0 0.0 0.00 0.00 0.00 42 1006.7
20260505225430 17 0.0 0.0 0.00 0.00 0.00 39 1006.8
20260505224013 17 0.0 0.0 0.00 0.00 0.00 37 1006.9
20260505222630 17 0.0 0.0 0.00 0.00 0.00 37 1006.7
20260505221315 17 0.0 0.0 0.00 0.00 0.00 37 1006.7
20260505220020 18 0.0 0.0 0.00 0.00 0.00 35 1006.7
20260505214730 18 0.0 0.0 0.00 0.00 0.00 34 1006.7
20260505213230 18 0.0 0.0 0.00 0.00 0.00 34 1006.8
20260505211945 18 0.0 0.0 0.00 0.00 0.00 33 1006.8
20260505210737 19 0.0 0.0 0.00 0.00 0.00 31 1006.8
20260505205345 20 0.0 0.0 0.00 0.00 0.00 30 1006.8
20260505204108 20 0.0 0.0 0.00 0.00 0.00 30 1006.8
20260505202822 20 0.0 0.0 0.00 0.00 0.00 30 1006.8